Location: Riverside Cemetery
(38.3047°N, 99.7773°W)
Time: 16:12:15
(UTC+00:00)

Cosmos 372 Rocket - Pass Details

Date: 19 September 2020
Orbit: 739 x 767 km, 74.1° (Epoch: 22 October)

Event Time Altitude Azimuth Distance (km) Brightness Sun altitude
Rises 01:20:15 0° 176° (S) 3,219 7.1 -8.4°
Reaches altitude 10° 01:22:44 10° 169° (SSE) 2,297 6.3 -8.9°
Maximum altitude 01:27:33 39° 101° (ESE) 1,145 4.4 -9.8°
Drops below altitude 10° 01:32:22 10° 34° (NE) 2,305 6.2 -10.8°
Sets 01:34:52 0° 27° (NNE) 3,231 7.1 -11.2°
